EDT,Max TemperatureF,Mean TemperatureF,Min TemperatureF,Max Dew PointF,MeanDew PointF,Min DewpointF,Max Humidity, Mean Humidity, Min Humidity, Max Sea Level PressureIn, Mean Sea Level PressureIn, Min Sea Level PressureIn, Max VisibilityMiles, Mean VisibilityMiles, Min VisibilityMiles, Max Wind SpeedMPH, Mean Wind SpeedMPH, Max Gust SpeedMPH,PrecipitationIn, CloudCover, Events, WindDirDegrees
2012-10-1,69,64,60,68,62,59,100,90,73,29.94,29.89,29.87,10,10,5,9,2,,0.02,8,,45
2012-10-2,87,78,69,79,73,70,100,91,55,29.98,29.88,29.83,10,8,0,10,2,16,0.59,6,Thunderstorm,171
2012-10-3,86,78,71,77,72,66,100,87,58,30.17,30.08,29.99,10,9,1,8,3,,0.00,5,,201
2012-10-4,77,70,62,70,66,63,100,87,65,30.25,30.19,30.15,10,10,2,7,1,,0.06,3,,235
2012-10-5,78,68,55,63,60,55,100,84,44,30.18,30.11,30.02,10,9,1,7,0,,0.00,0,,6
2012-10-6,82,66,51,68,59,52,100,81,42,30.02,29.95,29.87,10,10,7,12,1,,0.00,2,,243
2012-10-7,64,58,51,64,52,46,100,84,63,30.14,30.04,29.96,10,10,10,15,5,20,0.01,7,Thunderstorm,12
2012-10-8,53,50,48,50,48,45,100,92,76,30.22,30.15,30.12,10,9,2,14,7,20,0.55,8,Thunderstorm,18
2012-10-9,55,52,48,55,51,48,100,96,88,30.15,30.11,30.08,10,9,5,10,5,,0.00,8,,360
2012-10-10,69,60,50,55,53,50,100,83,49,30.10,30.05,29.98,10,8,2,8,1,,0.00,4,,262
2012-10-11,66,55,42,50,44,39,100,72,40,30.31,30.23,30.11,10,10,10,12,2,16,0.00,0,,9
2012-10-12,73,56,39,52,45,39,100,78,33,30.35,30.22,30.15,10,10,10,10,1,22,0.00,0,,336
2012-10-13,68,54,41,50,44,39,100,72,40,30.47,30.40,30.35,10,10,10,12,6,16,0.00,0,,42
2012-10-14,78,60,41,63,52,41,100,85,44,30.34,30.21,30.04,10,10,10,9,1,,0.00,1,,206
2012-10-15,77,65,53,70,60,54,100,92,61,30.03,29.86,29.71,10,10,2,9,1,20,0.14,4,Thunderstorm,211
2012-10-16,68,56,44,52,45,41,100,72,37,29.97,29.91,29.84,10,10,10,8,1,,0.00,0,,347
2012-10-17,69,56,42,52,46,43,100,84,43,30.02,29.97,29.93,10,10,10,7,1,,0.00,0,,176
2012-10-18,77,59,41,64,54,41,100,88,57,29.95,29.87,29.80,10,10,7,12,1,17,0.00,2,,162
2012-10-19,78,63,48,64,52,37,100,72,27,29.79,29.75,29.69,10,8,0,15,2,25,0.02,3,,210
2012-10-20,71,56,41,52,45,41,100,81,33,29.95,29.83,29.77,10,10,10,6,0,,0.00,0,,307
2012-10-21,68,54,41,46,42,37,100,70,33,30.16,30.08,29.95,10,10,10,8,2,,0.00,0,,10
2012-10-22,42,40,39,43,41,39,100,100,100,30.16,30.16,30.16,10,10,10,0,0,,0.00,0,,-1
2012-10-23,64,57,50,55,53,50,100,93,73,30.15,30.13,30.11,10,10,10,0,0,,0.00,0,,-1
2012-10-24,80,61,42,59,51,43,100,80,32,30.21,30.15,30.09,10,10,7,5,0,,0.00,0,,236
2012-10-25,80,62,44,61,54,45,100,83,42,30.18,30.13,30.10,10,10,10,6,0,,0.00,1,,113
2012-10-26,71,61,51,64,60,52,100,92,73,30.11,30.03,29.90,10,8,0,15,5,21,0.01,7,,22
2012-10-27,66,64,62,64,59,55,100,83,73,29.90,29.75,29.65,10,10,10,21,13,32,0.00,8,,16
2012-10-28,62,58,53,55,50,46,100,70,55,29.64,29.58,29.54,10,10,7,21,14,32,0.01,7,,356
2012-10-29,53,47,41,54,43,36,100,83,58,29.55,29.46,29.34,10,10,7,14,7,29,0.14,8,,297
2012-10-30,50,46,41,37,35,32,87,69,54,29.61,29.45,29.33,10,10,10,14,9,24,0.10,8,,235
2012-10-31,55,45,35,39,35,32,93,65,44,29.78,29.69,29.61,10,10,10,13,4,21,0.00,3,,247